GEFSSE_con_prob3kmehi_096.txt.gz
EHI
20 26 25 11 2 4 15 28 38 45 47 41 31 24 16 8 4 3 3 3 2 1 0 0 0 0 0 0 0 0 0 0 0 0 0 0 0 0 0 0 0 0 0
25 28 23 10 3 6 16 28 38 44 45 41 35 27 17 9 4 3 3 2 1 0 0 0 0 0 0 0 0 0 0 0 0 0 0 0 0 0 0 0 0 0 0
29 28 20 9 6 10 17 26 35 40 41 40 36 29 19 8 4 3 2 1 0 0 0 0 0 0 0 0 0 0 0 0 0 0 0 0 0 0 0 0 0 1 1
24 24 20 14 10 12 17 23 30 34 35 35 31 24 14 6 2 2 1 0 0 0 0 0 0 0 0 0 0 0 0 0 0 0 0 0 0 0 0 0 0 0 0
15 19 24 20 13 11 16 21 25 27 27 25 21 14 6 2 1 1 0 0 0 0 0 0 0 0 0 0 0 0 0 0 0 0 0 0 0 0 0 0 0 0 0
11 16 25 23 15 12 14 17 19 19 18 16 11 6 2 0 0 0 0 0 0 0 0 0 0 0 0 0 0 0 0 0 0 0 0 0 0 0 0 0 0 0 0
12 17 25 25 18 14 13 13 14 14 12 10 7 5 2 1 0 0 0 0 0 0 0 0 0 0 0 0 0 0 0 0 0 0 0 0 0 0 0 0 0 0 0
12 17 24 23 17 14 13 12 11 10 9 7 5 4 2 1 0 0 0 0 0 0 0 0 0 0 0 0 0 0 0 0 0 0 0 0 0 0 0 0 0 0 0
11 14 17 16 13 12 11 10 8 7 6 4 2 1 1 0 0 0 0 0 0 0 0 0 0 0 0 0 0 0 0 0 0 0 0 0 0 0 0 0 0 0 0
8 10 10 10 11 10 9 8 7 5 3 2 0 0 0 0 0 0 0 0 0 0 0 0 0 0 1 1 0 0 0 0 0 0 0 1 1 1 0 0 0 0 0
12 11 9 9 9 7 6 8 7 3 1 1 1 1 1 0 0 1 1 2 1 0 0 0 0 1 1 1 1 1 1 0 0 0 2 4 3 1 0 0 0 0 0
20 14 9 9 9 6 6 8 6 3 3 3 3 4 4 4 3 4 5 5 2 0 0 1 2 1 1 2 3 2 2 1 1 1 4 9 6 1 0 0 0 0 0
25 18 11 12 12 10 10 11 9 8 9 8 8 10 12 12 10 11 13 12 8 5 5 5 6 5 4 4 5 3 2 2 2 2 8 13 8 1 0 0 0 0 0
27 21 16 15 16 17 17 16 14 14 14 14 15 16 18 19 17 17 21 20 15 13 12 12 13 11 8 6 4 2 1 2 3 4 11 15 8 1 0 0 0 0 0
27 24 20 19 20 23 24 20 17 17 17 18 19 20 21 20 18 18 22 22 18 16 16 17 17 16 12 8 5 3 3 5 5 5 8 12 9 2 0 0 0 0 0
27 27 25 22 23 25 23 19 17 17 17 15 15 15 16 15 14 15 17 19 17 15 15 15 15 16 16 12 9 8 9 10 11 8 8 10 8 4 2 1 1 0 0
30 30 26 20 19 19 17 15 15 15 14 10 7 6 6 6 8 11 14 16 16 14 14 14 12 12 14 14 12 12 12 13 13 11 11 12 10 6 4 4 3 2 1
30 28 22 15 12 13 13 12 12 12 10 7 3 1 0 1 3 6 10 11 11 11 12 13 11 8 9 10 10 10 10 10 8 8 10 13 12 9 6 5 4 4 2
24 21 17 13 11 11 11 9 8 7 6 4 2 0 0 0 0 2 4 5 4 6 8 9 8 7 6 6 6 6 6 6 4 3 4 8 9 9 7 5 6 5 3
17 16 16 16 13 10 8 6 4 3 3 3 2 1 1 0 0 0 1 1 1 2 3 5 5 5 6 6 4 3 3 4 4 3 2 3 4 4 3 5 8 7 6
11 12 15 16 13 9 5 3 3 2 3 3 3 3 2 1 0 0 0 0 0 1 1 2 2 3 5 5 4 2 2 2 3 3 2 2 2 1 1 4 8 9 9
6 7 9 10 8 5 4 3 3 2 2 2 2 2 2 1 0 0 0 0 0 0 0 0 1 2 2 2 2 1 1 1 1 2 1 1 2 1 1 3 5 7 9
4 4 4 4 3 3 3 2 2 1 1 1 1 1 1 0 0 0 0 0 0 0 0 0 1 1 0 0 0 0 0 0 1 0 0 0 1 1 1 2 4 5 6
1 2 3 4 4 3 2 2 1 0 0 0 0 0 0 0 0 0 0 0 0 0 0 0 0 0 0 0 0 0 0 0 0 0 0 0 0 0 0 2 4 4 4
1 1 3 8 10 7 3 2 1 0 0 0 0 0 0 0 0 0 0 0 0 0 0 0 0 0 0 0 0 0 0 0 0 0 0 0 0 0 0 1 4 4 4
1 1 4 12 16 11 5 2 0 0 0 0 0 0 0 0 0 0 0 0 0 0 0 0 0 0 0 0 0 0 0 0 0 0 0 0 0 0 0 1 3 4 4

GEFSSE_con_prob3kmehi_102.txt.gz
EHI
74 64 54 35 14 3 0 0 0 0 0 0 0 0 0 0 0 0 0 0 0 0 0 0 0 0 0 0 0 0 0 0 0 0 0 0 0 0 0 0 0 0 0
74 66 56 39 17 4 1 0 0 0 0 0 0 0 0 0 0 0 0 0 0 0 0 0 0 0 0 0 0 0 0 0 0 0 0 0 0 0 0 0 0 0 0
64 58 51 39 19 6 3 2 0 0 0 0 0 0 0 0 0 0 0 0 0 0 0 0 0 0 0 0 0 0 0 0 0 0 0 0 0 0 0 0 1 1 1
47 44 41 35 20 8 5 4 2 1 0 0 0 0 0 0 0 0 0 0 0 0 0 0 0 0 0 0 0 0 0 0 0 0 0 0 0 0 0 0 1 1 1
38 39 40 33 21 11 7 6 5 4 2 1 1 1 1 0 0 0 0 0 0 0 0 0 0 0 0 0 0 0 0 0 1 1 1 0 0 0 0 0 0 0 0
43 44 42 34 22 12 8 8 8 7 5 4 4 3 1 0 0 0 0 0 0 0 0 0 0 0 0 0 0 0 0 1 3 3 3 3 3 2 1 0 0 0 0
54 48 43 37 25 14 10 10 9 8 6 5 5 3 1 0 0 0 0 0 0 0 0 0 0 0 0 0 0 0 0 3 5 5 7 9 7 4 2 0 0 0 0
60 51 41 34 24 15 13 11 8 6 5 4 3 1 1 1 0 0 0 0 0 0 0 0 0 0 0 0 0 0 1 3 5 5 9 14 11 6 3 1 0 0 0
63 50 35 25 17 12 11 10 8 6 4 3 1 0 0 0 0 0 0 0 0 0 0 0 0 0 0 0 0 0 1 3 4 3 9 16 16 11 6 2 0 0 0
64 50 33 22 12 6 7 9 8 5 5 4 1 0 0 0 0 0 1 1 1 0 0 0 0 1 1 0 0 0 1 3 3 4 12 23 26 18 9 3 1 0 0
66 52 37 25 13 5 8 12 9 4 6 7 4 2 1 1 2 2 5 9 7 4 1 0 1 2 3 2 1 0 0 1 1 6 23 39 39 28 16 7 3 1 0
65 54 43 32 21 15 19 21 14 12 16 14 11 9 5 5 7 10 15 19 15 9 3 3 5 5 5 5 4 3 1 0 0 9 33 51 49 37 25 15 7 3 1
62 58 54 47 39 37 39 34 25 27 31 28 26 24 16 14 18 24 30 28 22 14 10 12 14 11 8 8 9 8 4 1 1 11 35 52 52 42 33 25 16 8 4
61 63 66 62 56 55 54 48 42 41 41 43 46 40 31 26 28 33 36 33 25 21 18 19 20 16 11 10 10 10 10 6 4 13 33 49 49 44 39 34 25 14 9
62 66 69 66 63 61 59 55 51 46 44 50 53 46 37 33 32 31 31 29 24 23 22 21 18 14 11 10 8 11 14 12 8 14 30 44 46 44 43 39 31 20 12
60 64 65 62 62 61 56 51 45 39 40 44 43 37 30 28 29 28 25 20 19 19 20 19 15 11 11 9 8 10 13 14 14 17 27 39 42 42 42 41 37 28 21
59 61 58 55 56 55 50 42 34 28 29 31 30 26 21 18 21 24 20 16 16 16 17 17 14 12 11 10 10 9 10 14 18 19 24 31 36 37 36 38 40 37 33
60 60 54 47 46 44 40 32 25 20 19 20 20 19 15 12 12 13 12 12 12 12 12 13 15 15 14 13 11 8 8 12 16 17 18 25 32 35 35 35 37 37 34
54 54 47 39 34 31 26 20 17 15 12 11 12 12 10 6 4 4 5 5 6 7 7 9 12 14 14 12 7 4 3 7 10 10 12 18 25 31 32 32 32 30 25
42 42 37 31 25 21 18 16 15 13 9 7 7 8 6 4 3 2 2 1 2 2 4 6 7 7 8 6 3 1 1 3 6 7 8 11 15 19 21 26 31 28 21
36 34 30 26 22 19 19 18 17 14 9 6 6 7 7 7 5 4 2 2 2 2 3 3 3 3 3 2 1 0 0 3 5 6 8 9 8 8 10 18 28 29 24
33 29 26 26 25 21 19 18 16 12 7 5 6 8 8 7 5 4 3 4 4 5 4 2 1 1 1 1 1 0 0 2 4 4 5 7 8 7 6 8 15 22 23
23 23 25 29 27 21 16 13 10 7 5 5 7 9 8 5 3 3 3 3 5 5 4 2 0 0 0 0 0 0 0 0 1 1 1 3 6 6 3 2 4 10 14
14 20 30 34 30 22 16 12 8 6 6 6 8 10 8 4 3 3 2 2 3 4 2 1 0 0 0 0 0 0 0 0 0 0 0 1 2 3 2 1 1 5 9
13 21 31 38 37 29 21 14 10 9 8 7 7 7 6 3 2 2 3 3 3 3 2 0 0 0 0 0 0 0 0 0 0 0 0 0 0 1 1 0 0 2 4
16 21 29 41 43 34 24 16 12 11 10 7 5 4 3 2 1 2 3 3 3 3 2 1 0 0 0 0 0 0 0 0 0 0 0 0 0 0 0 0 0 1 1

GEFSSE_con_prob3kmehi_108.txt.gz
EHI
12 21 38 47 43 33 22 17 14 12 9 7 5 3 2 1 2 4 3 2 1 0 0 0 0 0 0 0 0 0 0 0 1 1 1 1 2 3 3 2 1 0 0
31 34 44 50 44 34 24 17 12 9 7 5 4 2 1 0 1 2 2 1 0 0 0 0 0 0 0 0 0 0 0 0 0 0 0 0 1 2 3 2 1 0 0
58 49 49 53 47 37 26 17 10 6 4 3 2 1 0 0 0 1 1 0 0 0 0 0 0 0 0 0 0 0 0 0 0 0 0 0 0 1 1 2 2 1 0
69 56 52 56 51 41 30 20 12 7 3 1 1 0 0 0 0 0 0 0 0 0 0 0 0 0 0 0 0 0 0 0 0 0 0 0 0 0 1 2 2 1 0
68 59 56 60 55 45 36 26 19 12 6 3 1 0 0 0 0 0 0 0 0 0 0 0 0 0 0 0 0 0 0 0 0 0 0 0 0 1 2 2 1 0 0
69 60 57 61 57 48 41 34 27 18 9 5 3 1 0 0 0 0 0 0 0 0 0 0 0 0 0 0 0 0 0 0 0 0 0 0 1 3 3 2 0 0 0
71 59 53 57 54 47 41 36 31 21 10 5 3 1 0 0 0 0 0 0 0 0 0 0 0 0 0 0 0 0 0 0 0 0 0 0 2 5 6 4 1 0 0
67 57 48 47 44 41 37 32 28 22 12 7 4 1 0 0 0 0 0 0 0 0 0 0 0 0 0 0 0 0 0 0 0 0 0 0 3 7 9 7 4 1 0
57 51 43 36 34 32 28 25 23 20 14 9 5 2 0 0 0 0 1 1 1 0 0 0 0 0 1 1 0 0 0 0 0 0 0 1 5 11 12 10 7 3 1
45 41 34 29 26 22 19 19 19 16 13 10 6 3 1 0 0 0 1 2 1 0 0 0 0 0 1 1 1 0 0 0 0 0 0 3 9 14 13 10 8 6 4
31 29 24 22 20 16 13 14 15 12 10 9 7 3 1 0 0 0 0 1 1 0 0 0 0 1 1 1 1 0 0 0 0 0 0 4 12 17 14 10 9 7 6
22 19 15 13 14 13 11 12 11 8 6 6 5 2 0 0 0 0 0 0 0 0 0 0 1 1 1 1 0 0 0 0 0 0 2 8 16 22 19 14 10 9 7
22 18 13 11 11 10 10 10 7 4 3 3 2 1 0 0 0 0 0 1 1 0 0 1 1 1 1 0 0 0 0 0 0 0 3 12 22 26 23 16 11 11 10
24 21 16 14 14 11 8 7 4 1 1 1 1 0 0 0 0 0 0 1 2 1 1 1 0 0 0 0 0 0 0 0 0 0 3 12 22 27 24 17 11 11 13
27 24 20 18 16 12 8 5 3 2 2 2 1 1 1 0 0 0 0 1 2 2 1 0 0 0 0 0 0 0 0 0 0 1 3 9 16 22 23 19 13 11 12
31 28 24 20 17 15 12 8 6 5 5 3 2 2 1 0 0 0 0 0 1 2 1 0 0 0 0 0 0 0 0 0 1 3 4 5 8 12 15 16 15 13 13
33 31 27 23 19 16 14 11 10 8 6 3 2 2 2 0 0 0 0 0 0 0 0 0 0 0 0 0 0 0 0 0 0 2 3 3 3 4 6 9 12 14 13
28 27 24 21 17 13 9 8 7 6 4 1 1 2 1 0 0 0 0 0 0 0 0 0 0 0 0 0 0 0 0 0 0 0 1 1 1 0 1 4 8 10 10
19 18 15 12 9 6 3 2 2 2 1 0 0 1 1 0 0 0 0 0 0 0 0 0 0 0 0 0 0 0 0 0 0 0 0 0 0 0 0 2 4 6 7
11 9 6 4 3 2 1 0 0 0 0 0 0 0 0 0 0 0 0 0 0 0 0 0 0 0 0 0 0 0 0 0 0 0 0 0 0 0 0 0 1 3 5
7 5 3 1 1 1 0 0 0 0 0 0 0 0 0 0 0 0 0 0 0 0 0 0 0 0 0 0 0 0 0 0 0 0 0 0 0 0 0 0 0 1 3
4 3 1 1 0 0 0 0 0 0 0 0 0 0 0 0 0 0 0 0 0 0 0 0 0 0 0 0 0 0 0 0 0 0 0 0 0 0 0 0 0 1 2
3 2 0 0 0 0 0 0 0 0 0 0 0 0 0 0 0 0 0 0 0 0 0 0 0 0 0 0 0 0 0 0 0 0 0 0 0 0 0 0 0 0 1
3 2 1 0 0 0 0 0 0 0 0 0 0 0 0 0 0 0 0 0 0 0 0 0 0 0 0 0 0 0 0 0 0 0 0 0 0 0 0 0 0 0 0
4 3 2 1 1 1 0 0 0 0 0 0 0 0 0 0 0 0 0 0 0 0 0 0 0 0 0 0 0 0 0 0 0 0 0 0 0 0 0 0 0 0 0
4 4 3 2 2 2 1 0 0 0 0 0 0 0 0 0 0 0 0 0 0 0 0 0 0 0 0 0 0 0 0 0 0 0 0 0 0 0 0 0 0 0 0

GEFSSE_con_prob3kmehi_114.txt.gz
EHI
15 19 28 39 51 60 60 56 52 48 42 38 35 31 25 15 6 1 0 0 0 0 0 0 0 0 0 0 0 0 0 0 0 0 0 0 0 0 0 0 0 0 0
27 25 31 41 51 57 55 51 47 43 39 33 29 25 19 11 4 1 0 0 0 0 0 0 0 0 0 0 0 0 0 0 0 0 0 0 0 0 0 0 0 0 0
40 34 35 45 53 54 51 46 41 36 32 27 21 16 11 6 3 1 0 0 0 0 0 0 0 0 0 0 0 0 0 0 0 0 0 0 0 0 0 0 0 0 0
43 38 40 51 56 54 50 44 39 32 27 21 15 10 6 4 2 1 0 0 0 0 0 0 0 0 0 0 0 0 0 0 0 0 0 0 0 0 0 0 0 0 0
42 39 43 53 56 52 48 45 39 32 25 17 11 7 4 2 1 0 0 0 0 0 0 0 0 0 0 0 0 0 0 0 0 0 0 0 0 0 0 0 0 0 0
44 41 45 54 55 50 47 43 37 31 24 16 9 6 4 2 0 0 0 0 0 0 0 0 0 0 0 0 0 0 0 0 0 0 0 0 0 0 0 0 0 0 0
54 49 48 53 53 48 44 40 34 28 23 15 9 6 4 2 1 0 0 0 0 0 0 0 0 0 0 0 0 0 0 0 0 0 0 0 0 0 0 0 0 0 0
61 54 48 48 46 42 37 34 29 24 19 13 8 5 3 2 1 0 0 0 0 0 0 0 0 0 0 0 0 0 0 0 0 0 0 0 0 0 0 0 0 0 0
57 55 48 42 37 31 25 22 20 18 15 12 8 4 2 1 1 0 0 0 0 0 0 0 0 0 0 0 0 0 0 0 0 0 0 0 0 0 0 0 0 0 0
49 50 47 38 29 21 15 11 10 11 11 11 9 5 1 0 0 0 0 0 0 0 0 0 0 0 0 1 1 0 0 0 0 0 0 0 0 0 0 0 0 0 0
39 39 37 31 24 18 12 7 6 7 9 10 9 6 2 1 0 1 1 0 0 0 0 0 0 0 1 2 3 2 1 0 0 0 0 0 0 0 0 1 1 0 0
29 26 24 21 20 17 12 7 5 6 7 8 6 5 3 1 0 1 2 1 0 0 0 0 0 0 1 2 4 4 2 1 0 0 0 0 0 1 1 2 3 2 1
23 20 17 16 15 12 9 7 6 6 7 6 4 3 3 1 0 1 2 1 0 0 0 0 0 0 0 1 2 3 2 1 0 0 0 0 0 1 2 3 4 4 2
20 17 13 11 9 8 7 7 7 7 6 4 2 1 1 0 0 0 1 1 0 0 0 1 1 0 0 0 0 1 1 1 0 0 0 0 0 1 2 2 3 4 3
16 12 6 4 5 5 6 5 5 5 4 2 1 0 0 0 0 0 0 0 0 0 1 1 0 0 0 0 0 0 0 0 0 0 0 0 0 0 1 1 1 2 3
11 8 3 1 2 3 3 2 2 3 2 1 0 0 0 0 0 0 0 0 0 0 0 0 0 0 0 0 0 0 1 0 0 0 0 0 0 0 0 0 0 1 2
8 6 3 1 1 1 1 0 1 1 1 1 0 0 0 0 0 0 0 0 0 0 0 0 0 0 0 0 0 0 0 0 0 0 0 0 0 0 0 0 1 2 2
5 3 1 1 0 0 0 0 0 0 0 0 0 0 0 0 0 0 0 0 0 0 1 0 0 0 0 0 0 0 0 0 0 0 0 0 0 0 1 1 1 2 3
2 1 0 0 0 0 0 0 0 0 0 0 0 0 0 0 0 0 0 0 0 0 0 0 0 0 0 0 0 0 0 0 0 0 0 0 0 1 2 1 2 3 3
2 1 0 0 0 0 0 0 0 0 0 0 0 0 0 0 0 0 0 0 0 0 0 0 0 0 0 0 0 0 0 0 0 0 0 0 0 0 1 1 1 2 1
2 1 0 0 0 0 0 0 0 0 0 0 0 0 0 0 0 0 0 0 0 0 0 0 0 0 0 0 0 0 0 0 0 0 0 0 0 0 0 0 0 0 0
2 1 0 0 0 0 0 0 0 0 0 0 0 0 0 0 0 0 0 0 0 0 0 0 0 0 0 0 0 0 0 0 0 0 0 0 0 0 0 0 0 0 0
1 0 0 0 0 0 0 0 0 0 0 0 0 0 0 0 0 0 0 0 0 0 0 0 0 0 0 0 0 0 0 0 0 0 0 0 0 0 0 0 0 0 0
0 0 0 0 0 0 0 0 0 0 0 0 0 0 0 0 0 0 0 0 0 0 0 0 0 0 0 0 0 0 0 0 0 0 0 0 0 0 0 0 0 0 0
0 0 0 0 0 0 0 0 0 0 0 0 0 0 0 0 0 0 0 0 0 0 0 0 0 0 0 0 0 0 0 0 0 0 0 0 0 0 0 0 0 0 0
0 0 0 0 0 0 0 0 0 0 0 0 0 0 0 0 0 0 0 0 0 0 0 0 0 0 0 0 0 0 0 0 0 0 0 0 0 0 0 0 0 0 0